This demonstration page uses our WeatherBlox Daily Observations layout. Learn more.

Left ArrowRight Arrow

53.62937, 11.41316

Hourly Observations for June 17, 2019

Temp ( °F °C ) Dew Point ( °F °C ) Humidity (%) Winds ( mph kmh ) Pressure ( in mb ) Visibility ( mi km ) Precip ( " mm )
6:50 am 06:50 Mostly Cloudy with Fog 57 14 57 14 100 100 VRB 1 2 30.18 1022 0 0 N/A
7:20 am 07:20 Mostly Sunny 61 16 59 15 94 94 VRB 1 2 30.18 1022 4 7 N/A
7:50 am 07:50 Mostly Sunny 63 17 59 15 88 88 SW 3 6 30.18 1022 7 11 N/A
8:20 am 08:20 Mostly Sunny 64 18 59 15 83 83 VRB 2 4 30.18 1022 7 11 N/A
8:50 am 08:50 Mostly Sunny 66 19 59 15 78 78 SSE 3 6 30.18 1022 7 11 N/A
9:20 am 09:20 Mostly Sunny 68 20 57 14 69 69 SSE 3 6 30.18 1022 7 11 N/A
9:50 am 09:50 Mostly Sunny 68 20 55 13 64 64 SSE 3 6 30.18 1022 7 11 N/A
10:20 am 10:20 Mostly Sunny 70 21 55 13 60 60 SE 5 7 30.18 1022 7 11 N/A
10:50 am 10:50 Mostly Sunny 72 22 52 11 50 50 SE 5 7 30.18 1022 30 48 N/A
11:20 am 11:20 Mostly Sunny 73 23 54 12 50 50 VRB 3 6 30.18 1022 7 11 N/A
11:50 am 11:50 Mostly Sunny 72 22 54 12 53 53 SSW 5 7 30.18 1022 7 11 N/A
12:20 pm 12:20 Mostly Sunny 73 23 55 13 53 53 VRB 6 9 30.18 1022 7 11 N/A
12:50 pm 12:50 Partly Cloudy 73 23 57 14 57 57 S 7 11 30.18 1022 30 48 N/A
1:20 pm 13:20 Partly Cloudy 75 24 54 12 47 47 SE 6 9 30.18 1022 30 48 N/A
1:50 pm 13:50 Partly Cloudy 75 24 57 14 54 54 S 5 7 30.15 1021 30 48 N/A
2:20 pm 14:20 Mostly Sunny 75 24 55 13 50 50 S 6 9 30.15 1021 7 11 N/A
2:50 pm 14:50 Mostly Sunny 75 24 54 12 47 47 SSE 6 9 30.15 1021 7 11 N/A
3:20 pm 15:20 Mostly Sunny 75 24 54 12 47 47 VRB 3 6 30.15 1021 7 11 N/A
3:50 pm 15:50 Mostly Sunny 75 24 54 12 47 47 SSE 5 7 30.15 1021 7 11 N/A
4:20 pm 16:20 Mostly Sunny 77 25 55 13 47 47 VRB 5 7 30.15 1021 7 11 N/A
4:50 pm 16:50 Mostly Sunny 77 25 54 12 44 44 SSE 5 7 30.15 1021 7 11 N/A
5:20 pm 17:20 Mostly Sunny 77 25 52 11 42 42 VRB 5 7 30.12 1020 7 11 N/A
5:50 pm 17:50 Mostly Sunny 77 25 54 12 44 44 VRB 3 6 30.12 1020 7 11 N/A
6:20 pm 18:20 Mostly Sunny 77 25 54 12 44 44 SE 5 7 30.12 1020 7 11 N/A
6:50 pm 18:50 Mostly Sunny 77 25 52 11 42 42 ESE 5 7 30.12 1020 7 11 N/A
7:20 pm 19:20 Mostly Sunny 77 25 54 12 44 44 E 6 9 30.09 1019 7 11 N/A
7:50 pm 19:50 Mostly Sunny 77 25 54 12 44 44 E 6 9 30.09 1019 7 11 N/A
8:20 pm 20:20 Mostly Sunny 75 24 55 13 50 50 E 6 9 30.09 1019 7 11 N/A
8:50 pm 20:50 Mostly Sunny 72 22 57 14 61 61 E 7 11 30.09 1019 7 11 N/A

Powered by AerisWeather